Weather History for KAZO - December, 2011

Change the Weather History Date:

Friday, December 30, 2011

  Actual Average Record
Temperature  
Mean Temperature 35 °F 25 °F  
Max Temperature 42 °F 32 °F 53 °F (2004)
Min Temperature 28 °F 19 °F -4 °F (1983)
Degree Days  
Heating Degree Days 30 40  
Month to date heating degree days 1083  
Since 1 July heating degree days 2410  
Cooling Degree Days 0 0  
Month to date cooling degree days 0  
Year to date cooling degree days 675  
Moisture  
Dew Point 33 °F    
Average Humidity 91    
Maximum Humidity 100    
Minimum Humidity 81    
Precipitation  
Precipitation 0.26 in 0.06 in 1.42 in (1971)
Month to date precipitation 1.84 1.92  
Year to date precipitation 35.68  
Sea Level Pressure  
Sea Level Pressure 29.66 in    
Wind  
Wind Speed 5 mph (East)    
Max Wind Speed 13 mph    
Max Gust Speed 16 mph    
Visibility 3 miles    
Events Rain    
T = Trace of Precipitation, MM = Missing Value Source: NWS Daily Summary

Daily Weather History Graph

Daily Weather History Graph

Search for Another Location

Airport or City:

Trip Planner

Search our weather history database for the weather conditions in past years. The results will help you decide how hot, cold, wet, or windy it might be!

Date:

Astronomy

Dec. 30, 2011 Rise Set
Actual Time 8:10 AM EST 5:18 PM EST
Civil Twilight 7:38 AM EST 5:50 PM EST
Nautical Twilight 7:03 AM EST 6:25 PM EST
Astronomical Twilight 6:29 AM EST 6:59 PM EST
Moon 11:22 AM EST (12/30) No Moon Set
Length of Visible Light 10h 11m
Length of Day
9h 08m
Waxing Crescent, 35% of the Moon is Illuminated
Dec 30
Waxing Crescent
Jan 1
First Quarter
Jan 9
Full
Jan 16
Last Quarter
Jan 23
New

Hourly Weather History & Observations

Time (EST) Temp. Windchill Dew Point Humidity Pressure Visibility Wind Dir Wind Speed Gust Speed Precip Events Conditions
12:02 AM 35.6 °F 32.8 °F 32.0 °F 87% 29.71 in 6.0 mi West 3.5 mph - N/A   Mostly Cloudy
12:32 AM 35.6 °F 31.7 °F 30.2 °F 81% 29.71 in 5.0 mi WNW 4.6 mph - N/A   Scattered Clouds
12:45 AM 35.6 °F 32.8 °F 32.0 °F 87% 29.71 in 5.0 mi West 3.5 mph - N/A   Mostly Cloudy
12:53 AM 35.1 °F - 32.0 °F 89% 29.73 in 5.0 mi Calm Calm - N/A   Mostly Cloudy
1:53 AM 35.1 °F - 32.0 °F 89% 29.74 in 5.0 mi Calm Calm - N/A   Scattered Clouds
2:11 AM 33.8 °F 30.8 °F 30.2 °F 87% 29.73 in 5.0 mi West 3.5 mph - N/A   Mostly Cloudy
2:18 AM 30.2 °F 26.7 °F 28.4 °F 93% 29.73 in 4.0 mi SW 3.5 mph - N/A   Scattered Clouds
2:53 AM 33.1 °F - 30.0 °F 89% 29.76 in 3.0 mi Calm Calm - N/A   Scattered Clouds
3:15 AM 28.4 °F - 28.4 °F 100% 29.74 in 2.0 mi Calm Calm - N/A   Scattered Clouds
3:22 AM 28.4 °F - 26.6 °F 93% 29.74 in 1.0 mi Calm Calm - N/A   Mist
3:30 AM 30.2 °F - 26.6 °F 86% 29.74 in 0.8 mi Calm Calm - N/A   Mist
3:34 AM 30.2 °F - 28.4 °F 93% 29.74 in 1.2 mi Calm Calm - N/A   Partly Cloudy
3:45 AM 30.2 °F - 28.4 °F 93% 29.74 in 2.0 mi Calm Calm - N/A   Clear
3:53 AM 30.0 °F 26.5 °F 28.9 °F 96% 29.76 in 2.0 mi SE 3.5 mph - N/A   Clear
4:13 AM 28.4 °F - 26.6 °F 93% 29.74 in 1.5 mi Calm Calm - N/A   Clear
4:32 AM 30.2 °F - 28.4 °F 93% 29.74 in 2.0 mi Calm Calm - N/A   Clear
4:45 AM 30.2 °F - 28.4 °F 93% 29.74 in 2.0 mi Calm Calm - N/A   Mostly Cloudy
4:53 AM 30.0 °F - 28.9 °F 96% 29.76 in 2.0 mi Calm Calm - N/A   Mostly Cloudy
5:53 AM 34.0 °F 31.0 °F 30.9 °F 89% 29.75 in 2.5 mi ESE 3.5 mph - N/A   Overcast
6:06 AM 33.8 °F 30.8 °F 30.2 °F 87% 29.73 in 2.5 mi ESE 3.5 mph - N/A   Overcast
6:26 AM 33.8 °F 30.8 °F 32.0 °F 93% 29.73 in 3.0 mi ESE 3.5 mph - N/A   Overcast
6:53 AM 35.6 °F 32.8 °F 32.0 °F 87% 29.73 in 3.0 mi ESE 3.5 mph - N/A   Overcast
7:53 AM 35.1 °F 31.0 °F 32.0 °F 89% 29.74 in 3.0 mi ESE 4.6 mph - N/A   Overcast
8:53 AM 36.0 °F 32.1 °F 33.1 °F 89% 29.72 in 2.5 mi ESE 4.6 mph - N/A   Overcast
9:53 AM 36.0 °F 32.1 °F 33.1 °F 89% 29.71 in 1.8 mi ESE 4.6 mph - 0.05 in Rain Rain
10:53 AM 37.9 °F 33.5 °F 35.1 °F 89% 29.68 in 2.5 mi ESE 5.8 mph - 0.03 in   Overcast
11:53 AM 39.0 °F 34.8 °F 37.0 °F 93% 29.64 in 2.5 mi ESE 5.8 mph - N/A   Overcast
12:21 PM 39.2 °F 35.9 °F 37.4 °F 93% 29.60 in 1.5 mi ESE 4.6 mph - N/A Rain Light Rain
12:53 PM 39.2 °F 33.6 °F 37.4 °F 93% 29.56 in 1.5 mi ESE 8.1 mph - N/A   Overcast
1:21 PM 39.2 °F 33.0 °F 37.4 °F 93% 29.53 in 1.8 mi ESE 9.2 mph - 0.00 in   Overcast
1:53 PM 41.0 °F 35.8 °F 37.9 °F 89% 29.53 in 2.5 mi ESE 8.1 mph - 0.00 in   Overcast
2:05 PM 41.0 °F 34.7 °F 37.4 °F 87% 29.51 in 1.5 mi ESE 10.4 mph - N/A Rain Light Rain
2:53 PM 41.0 °F 36.4 °F 39.0 °F 93% 29.52 in 1.8 mi ESE 6.9 mph - 0.02 in Rain Light Rain
3:53 PM 42.1 °F 40.2 °F 39.0 °F 89% 29.53 in 2.0 mi East 3.5 mph - 0.09 in Rain Light Rain
4:31 PM 42.8 °F 41.1 °F 39.2 °F 87% 29.51 in 1.5 mi North 3.5 mph - 0.03 in Rain Light Rain
4:53 PM 41.0 °F 39.0 °F 39.0 °F 93% 29.53 in 1.8 mi ENE 3.5 mph - 0.04 in Rain Light Rain
5:44 PM 41.0 °F - 39.2 °F 93% 29.52 in 2.0 mi Calm Calm - 0.01 in Rain Light Rain
5:53 PM 41.0 °F - 39.0 °F 93% 29.54 in 4.0 mi Calm Calm - 0.01 in Rain Light Rain
6:18 PM 41.0 °F - 39.2 °F 93% 29.53 in 3.0 mi Calm Calm - 0.00 in Rain Light Rain
6:53 PM 41.0 °F - 39.0 °F 93% 29.56 in 4.0 mi Calm Calm - 0.00 in Rain Light Rain
7:53 PM 41.0 °F 38.0 °F 37.9 °F 89% 29.59 in 3.0 mi NNE 4.6 mph - 0.01 in Rain Light Rain
8:53 PM 39.9 °F 35.1 °F 37.9 °F 93% 29.61 in 4.0 mi NNE 6.9 mph - 0.01 in Rain Light Rain
9:53 PM 37.9 °F 32.7 °F 35.1 °F 89% 29.64 in 5.0 mi NNE 6.9 mph - 0.00 in   Overcast
10:53 PM 37.0 °F 31.0 °F 34.0 °F 89% 29.66 in 4.0 mi North 8.1 mph - 0.00 in   Overcast
11:20 PM 37.4 °F 32.1 °F 33.8 °F 87% 29.65 in 2.5 mi North 6.9 mph - N/A   Overcast
11:35 PM 35.6 °F 29.2 °F 33.8 °F 93% 29.65 in 3.0 mi North 8.1 mph - N/A   Overcast
11:53 PM 36.0 °F 29.6 °F 34.0 °F 93% 29.68 in 4.0 mi North 8.1 mph - 0.00 in   Overcast